Regional Weather Roundup
Issued by NWS

Home | Current Version | Previous Version | Text Only | Print | Product List | Glossary On
Versions: 1 2 3 4 5 6 7 8 9 10 11 12 13 14 15 16 17 18 19 20 21 22 23 24 25 26 27 28 29 30 31 32 33 34 35 36 37 38 39 40 41 42 43 44 45 46 47 48 49 50
000
ASUS42 KKEY 271810
RWRKEY

FLORIDA REGIONAL WEATHER ROUNDUP FOR THE FLORIDA KEYS
NATIONAL WEATHER SERVICE KEY WEST FLORIDA
200 PM EDT MON APR 27 2015

...SOUTH FLORIDA AND THE KEYS...

CITY           SKY/WX    TMP DP  RH WIND       PRES   REMARKS
FORT MYERS     MOSUNNY   90  72  55 SW8G16    29.78F HX  97
SW REGIONAL AP MOSUNNY   90  71  53 SW7       29.79F HX  96
NAPLES         SUNNY     89  72  56 W7        29.80F HX  96
MIAMI          PTSUNNY   92  70  48 VRB7      29.81F HX  97
WEST KENDALL   PTSUNNY   94  71  47 CALM      29.81F HX 101
HOMESTEAD      MOSUNNY   89  76  63 SE8       29.81F HX 100
MARATHON       MOSUNNY   91  79  67 VRB7      29.84F HX 107
BOCA CHICA NAS PTSUNNY   88  73  61 S8        29.84F HX  95
KEY WEST INTL  SUNNY     86  75  69 S7        29.84F HX  95

...INTERNATIONAL WEATHER...

CITY           SKY/WX    TMP DP  RH WIND       PRES   REMARKS
NASSAU BAHAMAS NOT AVBL
CANCUN MEXICO  MOSUNNY   88  75  66 SE16G33   29.75F HX  97
COZUMEL MEXICO PTSUNNY   84  75  74 S17       29.76F HX  92

ADJACENT COASTAL WATERS...

STATION/POSITION TIME  SKY/WX   TEMP    WIND        PRES    WAVE
                                AIR SEA DIR/SP/G            HT/PER
                 (UTC)          (F)     (DEG/KT/KT) (MB)    (FT/S)
PULASKI SHOAL LI 1700            82     120/  5/  6 1010.6F
SAND KEY         1750            83     200/  2/  5 1010.6F
SOMBRERO KEY     1800            85     190/  7/  8 1011.0F
LONG KEY         1700            84 88  280/  3/  4 1011.6F
MOLASSES REEF    1800            83 82  180/  7/  8 1010.4F
FOWEY ROCKS      NOT AVBL

$$



USA.gov is the U.S. government's official web portal to all federal, state and local government web resources and services.